#timestamp,LO_Frequency,Hit,StdDev 
1565586015.6,286046999.5,N
1565586035.5,286046995.5,N
1565586055.3,286046998.9,N
1565586075.1,286046998.7,N
1565586095.9,286046998.3,N
1565586115.7,286047000.3,N
1565586135.6,286047002.6,N
1565586155.4,286047000.1,N
1565586175.2,286047000.0,N
1565586195.1,286047001.4,N
1565586196.0,286047001.4,N
1565586215.8,286047006.2,N
1565586235.6,286047012.4,Y
1565586255.5,286047012.8,P
1565586275.3,286047009.3,N
1565586295.2,286047008.2,N
1565586315.9,286047006.5,N
1565586335.7,286047008.5,N
1565586355.6,286047008.2,N
1565586375.4,286047007.9,N
1565586395.2,286047010.3,Y
1565586415.1,286047003.6,P
1565586416.0,286047003.6,N
1565586435.8,286047006.2,P
1565586455.7,286047011.3,Y
1565586475.5,286047012.4,P
1565586495.3,286047014.4,P
1565586515.2,286047020.3,P
1565586535.0,286047021.3,Y
1565586535.9,286047021.3,P
1565586555.8,286047009.0,N
1565586575.6,286047008.5,N
1565586595.4,286047008.0,N
1565586615.3,286047008.5,N
1565586635.1,286047009.9,N
1565586655.8,286047007.8,N
1565586675.7,286047009.9,N
1565586695.5,286047010.3,N
1565586715.4,286047005.3,N
1565586735.2,286047006.6,N
1565586755.0,286047006.1,N
1565586755.9,286047006.1,N
1565586775.8,286047006.8,N
1565586795.6,286047004.7,N
1565586815.4,286047005.5,N
1565586835.3,286047009.2,N
1565586855.1,286047010.7,N
1565586875.9,286047010.6,N
1565586895.7,286047009.7,N
1565586915.5,286047015.1,Y
1565586935.4,286047010.8,P
1565586955.2,286047011.8,P
1565586975.1,286047012.0,P
1565586976.0,286047012.0,Y
1565586995.8,286046998.5,P
1565587015.6,286047002.8,N
1565587035.5,286047001.5,N
1565587055.3,286047003.9,N
1565587075.1,286047003.7,N
1565587095.9,286047004.1,N
1565587115.7,286047001.6,N
1565587135.6,286047003.7,N
1565587155.4,286047003.6,N
1565587175.2,286047003.8,N
1565587195.1,286047002.2,N
1565587196.0,286047002.2,N
1565587215.8,286047005.8,N
1565587235.7,286047006.5,N
1565587255.5,286047006.3,N
1565587275.3,286047009.0,Y
1565587295.2,286047003.5,P
1565587315.0,286047001.7,P
1565587315.9,286047001.7,N
1565587335.8,286047001.5,N
1565587355.6,286047003.8,Y
1565587375.4,286047001.9,P
1565587395.3,286047000.3,N
1565587415.1,286046998.6,N
1565587435.8,286046997.9,N
1565587455.7,286046994.4,Y
1565587475.5,286046991.7,P
1565587495.4,286046991.9,N
1565587515.2,286046989.8,N
1565587535.0,286046985.6,Y
1565587535.9,286046985.6,P
1565587555.8,286046993.6,N
1565587575.6,286046997.5,N
1565587595.5,286046995.3,N
1565587615.3,286046996.4,N
1565587635.1,286046995.0,N
1565587655.9,286046997.4,N
1565587675.7,286046996.3,N
1565587695.5,286046992.0,N
1565587715.4,286046990.1,N
1565587735.2,286046995.9,N
1565587755.1,286046999.5,N
1565587756.0,286046999.5,N
1565587775.8,286046999.4,N
1565587795.6,286047000.6,N
1565587815.5,286047003.4,N
1565587835.3,286047004.7,N
1565587855.1,286047008.9,N
1565587875.9,286047013.9,N
1565587895.7,286047015.6,N
1565587915.6,286047014.5,N
1565587935.4,286047016.8,N
1565587955.2,286047017.3,N
1565587975.1,286047021.6,N
1565587976.0,286047021.6,N
1565587995.8,286047019.4,N
1565588015.6,286047017.9,N
1565588035.5,286047019.2,N
1565588055.3,286047018.2,N
1565588075.2,286047019.2,N
1565588095.9,286047020.9,N
1565588115.7,286047019.3,N
1565588135.6,286047020.1,N
1565588155.4,286047020.2,N
1565588175.2,286047019.2,N
1565588195.1,286047017.7,N
1565588196.0,286047017.7,N
1565588215.8,286047016.0,N
1565588235.7,286047014.8,N
1565588255.5,286047014.0,N
1565588275.3,286047009.8,N
1565588295.2,286047007.9,N
1565588315.0,286047006.6,N
1565588315.9,286047006.6,N
1565588335.7,286047006.7,N
1565588355.6,286047008.8,N
1565588375.4,286047012.4,N
1565588395.3,286047013.2,N
1565588415.1,286047014.2,Y
1565588435.8,286046998.5,P
1565588455.7,286046999.4,N
1565588475.5,286046998.5,N
1565588495.4,286046999.8,N
1565588515.2,286047005.5,N
1565588535.0,286047005.9,N
1565588535.9,286047005.9,N
1565588555.8,286047005.8,N
1565588575.6,286047009.1,N
1565588595.5,286047009.5,N
1565588615.3,286047008.3,N
1565588635.1,286047006.9,N
1565588655.9,286047006.2,N
1565588675.7,286047005.0,N
1565588695.5,286047003.6,N
1565588715.4,286047005.9,N
1565588735.2,286047005.7,N
1565588755.1,286047003.4,N
1565588756.0,286047003.4,N
1565588775.8,286046999.8,N
1565588795.6,286046996.6,N
1565588815.5,286046995.4,N
1565588835.3,286046995.8,N
1565588855.1,286046994.5,N
1565588875.9,286046991.8,N
1565588895.7,286046995.8,N
1565588915.6,286046997.6,N
1565588935.4,286046997.1,N
1565588955.2,286046999.1,N
1565588975.1,286046996.9,N
1565588976.0,286046996.9,N
1565588995.8,286046998.8,N
1565589015.7,286047000.7,N
1565589035.5,286047001.5,N
1565589055.3,286047003.9,N
1565589075.2,286047009.2,N
1565589095.9,286047010.2,N
1565589115.7,286047011.5,N
1565589135.6,286047014.1,N
1565589155.4,286047018.7,Y
1565589175.3,286047016.6,P
1565589195.1,286047015.7,N
1565589196.0,286047015.7,N
1565589215.8,286047015.0,N
1565589235.7,286047011.4,N
1565589255.5,286047011.5,N
1565589275.3,286047013.1,N
1565589295.2,286047013.2,Y
1565589315.0,286046998.3,P
1565589315.9,286046998.3,N
1565589335.8,286046999.6,N
1565589355.6,286046997.7,N
1565589375.4,286046995.0,N
1565589395.3,286046997.6,N
1565589415.1,286047000.4,N
1565589435.8,286047001.6,N
1565589455.7,286047004.0,N
1565589475.5,286047007.3,N
1565589495.4,286047008.7,N
1565589515.2,286047007.4,N
1565589535.0,286047010.1,N
1565589535.9,286047010.1,N
1565589555.8,286047012.5,N
1565589575.6,286047018.4,Y
1565589595.5,286047014.4,P
